This demonstration page uses our WeatherBlox Daily Observations layout. Learn more.

Left ArrowRight Arrow

44.89941, -97.11507

Hourly Observations for October 7, 2021

Temp ( °F °C ) Dew Point ( °F °C ) Humidity (%) Winds ( mph kmh ) Pressure ( in mb ) Visibility ( mi km ) Precip ( " mm )
12:53 am 00:53 Clear 57 13.9 53 11.7 87 87 SSE 9 15 30.05 1018 10 16 N/A
1:53 am 01:53 Clear 56 13.3 53 11.7 90 90 SSE 9 15 30.05 1018 10 16 N/A
2:53 am 02:53 Clear 56 13.3 54 12.2 93 93 SSE 9 15 30.05 1018 10 16 N/A
3:53 am 03:53 Clear 55 12.8 53 11.7 93 93 SSE 8 13 30.05 1018 9 14 N/A
4:53 am 04:53 Clear 55 12.8 53 11.7 93 93 SSE 8 13 30.06 1018 8 13 N/A
5:53 am 05:53 Clear 54 12.2 53 11.7 97 97 SSE 7 11 30.06 1018 8 13 N/A
6:53 am 06:53 Clear with Mist and Fog 54 12.2 53 11.7 97 97 SSE 8 13 30.05 1018 6 10 N/A
7:41 am 07:41 Partly Cloudy with Mist and Fog 54 12.2 53 11.7 97 97 SSE 9 15 30.04 1017 4 6 N/A
7:53 am 07:53 Partly Cloudy with Mist and Fog 54 12.2 54 12.2 100 100 SSE 8 13 30.05 1018 4 6 N/A
8:19 am 08:19 Mostly Cloudy with Mist and Fog 55 12.8 55 12.8 100 100 SSE 10 17 30.04 1017 4 6 N/A
8:26 am 08:26 Partly Cloudy with Mist and Fog 56 13.3 55 12.8 97 97 SSE 9 15 30.04 1017 4 6 N/A
8:53 am 08:53 Sunny 57 13.9 56 13.3 96 96 SSE 9 15 30.05 1018 7 11 N/A
9:53 am 09:53 Sunny 60 15.6 57 13.9 90 90 SSE 12 19 30.04 1017 9 14 N/A
10:53 am 10:53 Sunny 66 18.9 59 15 78 78 S 10 17 30.03 1017 10 16 N/A
11:53 am 11:53 Sunny 68 20 59 15 73 73 SSE 14 22 30.02 1017 10 16 N/A
12:53 pm 12:53 Sunny 71 21.7 57 13.9 61 61 SSE 14 22 30.00 1016 10 16 N/A
1:53 pm 13:53 Sunny 72 22.2 57 13.9 59 59 S 13 20 29.98 1015 10 16 N/A
2:53 pm 14:53 Mostly Sunny 73 22.8 56 13.3 55 55 S 12 19 29.96 1015 10 16 N/A
3:53 pm 15:53 Sunny 73 22.8 57 13.9 57 57 SSE 13 20 29.95 1014 10 16 N/A
4:53 pm 16:53 Sunny 73 22.8 56 13.3 55 55 SSE 12 19 29.95 1014 10 16 N/A
5:53 pm 17:53 Sunny 72 22.2 57 13.9 59 59 SSE 10 17 29.94 1014 10 16 N/A
6:53 pm 18:53 Sunny 69 20.6 56 13.3 63 63 SSE 9 15 29.94 1014 10 16 N/A
7:53 pm 19:53 Clear 67 19.4 56 13.3 68 68 SE 8 13 29.94 1014 10 16 N/A
8:53 pm 20:53 Clear 65 18.3 57 13.9 76 76 SE 7 11 29.95 1014 10 16 N/A
9:53 pm 21:53 Clear 64 17.8 57 13.9 78 78 SSE 7 11 29.95 1014 10 16 N/A
10:53 pm 22:53 Clear 62 16.7 57 13.9 84 84 SE 7 11 29.95 1014 10 16 N/A
11:53 pm 23:53 Clear 62 16.7 57 13.9 84 84 SSE 9 15 29.94 1014 10 16 N/A

Powered by AerisWeather